Flag for Italy Weather past 2 weeks in Verona, Italy

57 °F

Drizzle. Cloudy.

Feels Like: 56 °F
Forecast: 58 / 65 °F
Wind: 6 mph from East

Location: Verona / Villafranca

Current Time: Oct 13, 2015 at 11:57:25 AM

Latest Report: Oct 13, 2015 at 11:20 AM

Visibility: 4 mi

Pressure: 29.92 "Hg

Humidity: 94%

Dew point: 55 °F

Location of VeronaLocation

Historic Weather in Verona — Graph


Verona temperature yesterday

Maximum temperature yesterday: 70 °F (at 2:50 PM)
Minimum temperature yesterday: 52 °F (at 7:20 AM)
Average temperature yesterday: 62 °F

Past Weeks' High & Low Weather Summary

High73 °F (Oct 7, 2:50 PM)100% (Oct 3, 8:20 AM)30.36 "Hg (Oct 3, 8:20 AM)
Low48 °F (Oct 1, 5:50 AM)28% (Sep 29, 4:50 PM)29.68 "Hg (Oct 11, 4:20 AM)
Average62 °F73%30.05 "Hg
* Reported Sep 28 10:20 AM — Oct 13 10:20 AM, Verona, Weather by CustomWeather, © 2015

Note: Actual official high and low records may vary slightly from our data, if they occured in-between our weather recording intervals... More about our weather records


Verona weather history for previous 24 hours

Time TempWeatherWind HumidityBarometerVisibility
10:20 AM
Tue, Oct 13
57 °FLight rain. Fog.5 mph94%29.95 "Hg3 mi
9:50 AM57 °FDrizzle. Partly sunny.3 mph94%29.95 "Hg4 mi
9:20 AM57 °FDrizzle. Partly sunny.1 mph94%29.95 "Hg4 mi
8:50 AM57 °FDrizzle. Fog.2 mph100%29.92 "Hg3 mi
8:20 AM57 °FDrizzle. Fog.2 mph100%29.92 "Hg3 mi
7:50 AM57 °FLight rain. Fog.2 mph100%29.92 "Hg2 mi
7:20 AM57 °FLight rain. Fog.1 mph100%29.95 "Hg3 mi
6:50 AM57 °FRain. Passing clouds.1 mph100%29.95 "Hg4 mi
6:20 AM57 °FLight rain. Passing clouds.2 mph100%29.95 "Hg4 mi
5:50 AM57 °FLight rain. Passing clouds.5 mph100%29.95 "Hg4 mi
5:20 AM57 °FLight rain. Passing clouds.5 mph100%29.95 "Hg4 mi
4:50 AM57 °FPassing clouds.3 mph100%29.98 "Hg4 mi
4:20 AM57 °FPassing clouds.3 mph100%29.98 "Hg4 mi
3:50 AM57 °FPassing clouds.3 mph100%29.98 "Hg4 mi
3:20 AM59 °FPassing clouds.2 mph94%29.98 "Hg4 mi
2:50 AM59 °FLight rain. Passing clouds.2 mph94%29.98 "Hg4 mi
2:20 AM59 °FLight rain. Passing clouds.2 mph94%29.98 "Hg4 mi
1:50 AM59 °FLight rain. Passing clouds.2 mph88%29.98 "Hg4 mi
1:20 AM59 °FRain. Passing clouds.3 mph88%29.98 "Hg4 mi
12:50 AM59 °FRain. Passing clouds.5 mph88%29.98 "Hg4 mi
12:20 AM59 °FRain. Passing clouds.3 mph88%29.98 "Hg5 mi
11:50 PM
Mon, Oct 12
61 °FPassing clouds.5 mph77%29.98 "Hg5 mi
11:20 PM61 °FPassing clouds.3 mph77%29.98 "Hg5 mi
10:50 PM63 °FPassing clouds.6 mph73%29.98 "HgN/A
10:20 PM63 °FPassing clouds.6 mph77%29.98 "HgN/A
9:50 PM63 °FPassing clouds.7 mph77%29.98 "HgN/A
9:20 PM63 °FPassing clouds.7 mph77%29.98 "HgN/A
8:50 PM63 °FClear.7 mph77%29.98 "Hg10 mi
8:20 PM64 °FPassing clouds.7 mph73%29.98 "HgN/A
7:50 PM63 °FClear.3 mph77%29.98 "Hg10 mi
7:20 PM64 °FPassing clouds.2 mph73%29.95 "HgN/A
6:50 PM64 °FPassing clouds.2 mph68%29.95 "HgN/A
6:20 PM66 °FScattered clouds.3 mph64%29.95 "HgN/A
5:50 PM66 °FScattered clouds.3 mph64%29.95 "HgN/A
5:20 PM70 °FPassing clouds.5 mph57%29.95 "HgN/A
4:50 PM70 °FPassing clouds.5 mph57%29.95 "HgN/A
4:20 PM70 °FScattered clouds.2 mph57%29.95 "HgN/A
3:50 PM70 °FScattered clouds.3 mph57%29.95 "HgN/A
3:20 PM70 °FPassing clouds.5 mph60%29.95 "HgN/A
2:50 PM70 °FSunny.3 mph57%29.95 "Hg10 mi
2:20 PM68 °FPassing clouds.5 mph60%29.95 "HgN/A
1:50 PM68 °FSunny.6 mph60%29.95 "Hg10 mi
1:20 PM68 °FPassing clouds.7 mph56%29.95 "HgN/A
12:50 PM66 °FSunny.7 mph60%29.95 "Hg10 mi
12:20 PM66 °FPassing clouds.7 mph60%29.95 "HgN/A
11:50 AM66 °FPassing clouds.6 mph56%29.95 "HgN/A
Weather by CustomWeather, © 2015

See weather overviewHow to use our weather pages